GEFSSE_500_meanwind_258.txt.gz
Wind_Speed
8 7 7 7 6 6 6 6 5 5 5 6 6 6 6 6 7 8 8 9 9 8 8 9 10 10 8 8 8 7 8 7 7 6 6 5 6 6 5 4 4 4 4
7 6 6 6 6 6 6 6 6 6 6 6 6 6 6 7 8 9 9 9 9 8 8 8 9 9 9 8 7 7 7 6 7 6 6 5 5 5 5 4 4 4 4
8 7 6 6 6 5 5 6 6 6 6 6 6 6 7 7 8 9 9 9 9 9 8 8 8 8 8 8 7 7 7 6 5 6 6 5 5 5 5 5 4 4 4
8 8 7 6 6 5 5 5 6 6 6 6 6 6 7 8 8 8 8 9 9 9 9 9 8 8 7 7 7 7 6 6 5 5 5 5 4 4 4 4 4 4 4
8 8 7 6 6 6 5 5 5 6 6 6 7 7 7 8 8 8 7 8 9 9 8 8 8 7 7 6 6 6 6 5 5 5 5 5 4 4 3 3 3 3 4
9 9 7 7 6 6 5 5 5 5 6 7 7 7 7 7 7 7 8 7 7 8 8 8 8 7 7 6 5 5 5 6 6 5 4 3 3 3 3 3 3 3 4
10 9 8 6 6 6 6 6 6 6 6 6 6 6 7 7 7 7 7 7 6 7 7 7 7 6 6 6 5 5 6 6 4 3 3 3 3 3 3 2 3 4 4
10 9 8 7 6 6 7 7 7 7 7 7 7 7 6 7 7 7 6 6 6 7 7 7 7 6 6 5 5 4 5 4 4 3 3 4 3 3 3 3 3 4 5
11 10 8 8 7 7 7 7 7 7 7 7 7 7 7 7 8 8 7 7 6 7 7 7 6 5 6 6 6 5 5 4 3 4 4 3 3 3 3 3 3 3 4
11 10 8 9 8 7 7 7 7 7 7 7 7 7 7 6 7 8 7 7 6 6 6 6 6 6 7 6 6 5 4 3 4 4 3 3 3 3 3 3 3 3 3
11 11 9 8 8 8 7 8 7 7 7 6 6 6 6 6 6 6 6 7 7 6 6 6 6 5 6 5 5 4 4 3 4 3 3 4 3 3 3 3 3 3 2
12 11 10 9 9 9 8 8 7 7 7 6 6 6 6 6 6 6 5 6 5 5 5 6 5 5 5 5 5 4 3 3 3 3 3 3 3 2 3 2 2 2 2
13 12 11 10 10 9 8 8 8 7 7 6 6 6 6 6 6 6 5 5 5 5 5 5 5 5 5 5 4 4 3 3 3 3 4 3 2 2 2 2 2 2 1
13 12 11 10 9 9 8 8 7 7 7 6 6 5 5 6 6 6 5 4 5 6 6 5 5 4 5 4 4 3 3 2 3 3 4 3 2 2 2 2 2 2 3
12 13 12 11 10 9 8 8 7 7 7 7 7 6 5 5 6 6 5 4 4 5 5 5 5 5 4 4 3 3 3 3 3 3 3 3 3 2 3 3 2 3 3
13 13 13 12 10 9 9 8 8 8 8 8 7 7 6 6 5 5 5 5 4 4 5 4 4 4 3 2 2 2 2 2 2 2 2 2 3 3 3 3 3 4 4
14 13 12 11 10 9 9 9 9 8 8 8 7 7 7 7 6 5 5 5 5 5 4 4 4 4 4 3 1 2 2 1 1 1 2 2 3 3 3 4 5 6 6
14 13 12 11 10 9 9 9 9 9 9 8 7 7 7 6 6 5 5 5 5 4 4 4 3 3 3 2 2 1 1 0 1 1 2 3 3 4 5 5 6 6 7
14 14 12 12 11 10 10 9 9 10 10 9 8 7 6 6 6 5 5 4 4 4 3 3 4 3 2 2 2 2 2 2 2 3 3 4 4 5 5 6 6 6 6
13 13 13 12 11 11 10 10 10 10 10 9 8 7 7 6 6 5 5 5 4 4 3 3 4 3 3 2 3 3 3 4 4 4 5 5 5 6 6 6 7 7 7
12 12 12 12 12 12 11 10 10 10 10 9 8 7 7 6 6 6 5 5 5 4 4 4 4 4 4 4 4 4 5 5 5 5 6 6 6 8 8 8 9 8 9
12 11 11 11 11 11 11 11 11 11 10 10 9 8 8 7 7 6 6 5 5 5 4 4 5 5 6 6 5 5 5 6 7 7 7 8 8 9 10 11 11 10 10
11 11 10 10 10 10 10 10 10 10 10 10 9 8 7 7 7 6 6 6 6 6 6 6 6 6 6 7 7 7 7 7 7 8 9 9 10 10 11 12 12 12 12
11 10 9 9 9 9 9 9 10 9 9 9 9 8 8 7 7 6 6 6 7 7 7 7 7 8 8 8 9 9 9 9 9 9 9 10 10 11 12 12 12 11 12
10 10 10 9 8 8 9 9 9 9 9 9 9 9 8 8 8 8 7 7 8 8 8 8 8 9 9 10 10 10 10 10 10 11 11 11 11 12 12 12 12 11 11
10 9 9 10 10 9 9 9 9 10 10 9 9 9 9 9 9 9 8 8 9 9 10 10 9 10 10 10 10 10 10 11 12 12 12 12 12 13 13 13 13 13 13

GEFSSE_500_meanwind_264.txt.gz
Wind_Speed
7 7 7 5 5 5 6 6 5 5 5 4 4 4 5 5 6 7 8 8 8 9 10 9 10 10 11 10 9 9 9 9 8 7 7 7 7 7 7 6 6 5 6
7 7 7 5 5 5 6 6 6 6 6 5 5 5 5 6 7 7 8 8 8 8 9 10 10 11 10 9 9 9 9 8 8 7 7 7 7 7 6 6 6 5 5
8 7 7 6 5 5 6 6 6 6 6 6 6 6 6 7 7 7 7 8 8 8 9 10 10 10 10 9 8 8 8 8 7 7 7 7 7 6 6 6 6 5 5
8 8 7 5 5 5 5 6 6 6 6 6 6 6 7 8 7 7 7 8 8 8 9 9 9 10 9 9 9 8 7 7 7 7 8 7 7 6 6 6 5 5 5
8 7 7 6 6 6 6 5 5 6 6 6 6 6 7 8 8 7 8 8 8 9 9 8 9 9 9 8 8 8 7 6 6 7 7 6 6 5 5 5 5 5 5
8 8 8 7 7 6 6 6 6 6 7 6 6 6 7 8 7 7 8 9 9 9 8 8 9 9 8 8 8 7 6 5 6 6 6 6 5 5 5 5 5 4 5
10 9 9 9 8 7 7 7 8 7 7 7 7 7 8 8 7 8 9 10 9 8 8 7 8 8 7 7 7 6 5 5 4 5 5 5 5 5 5 5 4 4 4
12 11 9 9 9 9 8 8 8 8 8 8 8 8 7 8 8 8 8 8 9 9 8 7 7 8 7 6 6 5 5 4 5 5 5 6 5 6 5 5 4 5 5
13 12 11 11 10 9 9 9 8 9 9 9 8 8 8 8 8 8 8 8 8 8 7 7 7 7 7 6 5 5 4 5 6 5 5 5 5 6 5 5 5 5 5
14 13 12 11 11 10 9 9 8 8 8 8 7 8 8 7 7 7 7 7 7 7 7 6 7 7 7 6 6 6 6 5 5 5 4 4 5 5 5 5 5 6 6
14 13 12 12 11 11 10 9 8 8 8 7 8 8 8 7 7 7 6 6 6 7 7 6 6 6 6 6 7 6 5 4 4 4 4 4 4 5 5 5 5 5 5
14 13 13 12 12 11 11 10 9 8 8 8 8 8 8 8 7 7 6 6 7 7 6 6 7 6 5 6 6 6 5 5 5 4 4 4 4 4 4 4 5 5 5
14 13 12 12 12 12 10 9 9 9 8 8 8 8 8 8 8 8 7 6 6 6 6 5 5 5 5 5 5 4 4 5 5 5 4 4 4 4 3 4 4 5 5
15 14 13 11 11 11 11 10 9 8 8 7 7 7 8 8 8 7 7 6 6 6 6 5 5 5 5 4 4 3 4 4 4 4 4 4 3 4 4 3 4 4 4
16 15 14 13 12 12 12 11 10 9 8 8 7 7 7 7 8 7 6 6 6 6 6 6 5 4 4 3 3 2 2 3 3 4 4 3 3 4 4 4 4 4 4
16 15 14 14 13 12 12 12 11 9 8 7 7 6 6 7 7 7 7 6 6 6 6 5 4 4 4 3 3 2 1 2 2 3 3 4 5 5 5 5 5 5 5
15 15 14 14 14 13 13 13 13 11 10 8 7 8 7 7 6 7 6 6 6 5 5 4 4 4 3 3 3 2 2 2 2 2 3 4 4 5 5 6 6 7 7
15 14 13 13 13 13 13 12 13 12 11 10 9 8 8 7 6 6 6 6 5 4 4 3 3 3 3 2 2 1 1 2 3 3 4 4 4 5 6 6 7 7 8
14 14 13 13 13 13 13 12 12 11 11 10 9 9 8 7 6 6 5 5 4 4 3 2 1 2 2 2 1 1 1 1 3 4 4 5 5 5 6 6 7 7 8
14 14 13 13 13 13 13 12 11 11 10 10 9 9 8 7 7 5 6 5 4 4 3 2 2 2 2 2 2 2 3 3 3 4 5 6 6 7 7 7 8 9 10
13 14 13 13 12 12 12 12 11 10 10 9 8 8 7 6 6 5 4 5 4 3 3 3 3 3 3 3 3 3 3 4 4 5 6 6 7 7 7 8 9 10 11
12 12 12 12 12 11 11 11 10 10 9 8 8 8 7 7 6 5 4 4 5 4 4 3 3 4 4 4 4 5 5 5 6 6 6 6 7 7 8 9 10 11 12
11 11 11 10 10 10 10 10 10 10 10 9 9 8 8 7 7 6 6 5 5 4 4 4 5 5 5 6 6 6 7 7 7 8 8 8 8 8 9 9 9 10 12
9 9 10 10 9 9 9 9 9 10 9 9 8 7 7 7 6 5 5 5 6 5 5 5 5 6 6 7 7 8 8 8 8 8 9 9 10 10 10 10 10 11 11
9 8 8 9 9 9 9 9 9 9 8 8 7 7 7 6 6 5 5 5 6 6 6 6 6 6 7 7 8 8 8 9 9 9 9 10 10 11 11 11 11 12 11
8 8 7 8 8 8 8 8 8 8 8 7 7 7 7 6 6 6 5 6 6 6 6 6 7 8 8 8 8 8 9 9 9 9 10 10 11 10 11 11 11 12 13

GEFSSE_500_meanwind_270.txt.gz
Wind_Speed
7 7 6 6 5 5 6 6 6 5 6 6 5 5 5 7 7 7 7 7 7 7 8 8 9 10 10 10 10 10 9 8 8 8 7 7 7 7 5 5 5 5 5
7 6 6 6 5 5 6 6 6 6 7 6 6 6 7 7 7 7 7 8 7 8 8 8 9 9 10 10 10 9 8 8 8 8 7 8 7 7 6 6 6 5 5
7 7 6 6 6 6 7 7 7 7 7 6 6 7 8 8 7 8 8 8 8 8 9 9 9 9 9 8 8 8 8 8 8 8 8 8 7 7 6 6 6 5 5
7 7 7 6 6 6 7 7 7 7 7 7 7 7 7 8 8 8 8 8 8 9 9 8 9 9 8 8 8 8 8 7 7 8 7 7 7 7 6 6 5 5 4
8 7 7 7 6 6 7 7 7 7 7 7 6 7 7 8 8 8 8 8 8 9 9 9 9 9 8 8 8 8 7 7 6 7 6 6 7 6 6 6 5 5 4
8 8 7 7 7 7 8 9 8 8 8 8 7 7 7 8 8 8 8 8 8 8 8 9 10 9 8 8 7 7 7 6 5 6 6 6 6 6 6 6 5 4 5
9 9 8 8 9 9 9 9 9 8 8 8 7 7 7 7 7 7 7 7 7 8 7 8 8 8 8 8 7 7 6 6 5 5 5 6 6 6 6 5 5 4 5
11 10 9 10 10 9 9 9 9 9 8 8 7 7 7 7 7 8 7 7 7 6 6 7 8 8 8 7 6 5 5 5 4 5 6 6 5 6 6 5 4 4 4
12 12 11 11 10 10 10 10 9 9 9 8 8 8 8 7 8 8 8 7 7 6 6 6 7 8 7 7 6 5 5 4 3 4 5 5 5 5 5 4 4 4 4
13 13 13 12 11 10 11 10 9 9 8 8 8 8 8 8 8 8 8 8 6 6 6 6 7 7 7 6 5 5 4 3 3 4 4 4 4 4 4 4 4 4 4
14 13 13 12 11 10 10 10 9 9 8 8 8 8 8 8 8 8 9 8 7 6 6 5 6 6 5 5 4 4 4 4 4 4 3 3 4 4 4 4 5 4 4
14 14 13 13 12 11 10 9 9 8 9 8 8 8 8 8 8 8 8 7 7 6 6 6 5 5 4 4 4 4 4 4 4 4 3 3 3 3 4 4 5 4 4
14 14 13 13 12 11 10 9 8 9 9 8 8 8 8 8 8 8 7 7 6 6 6 6 5 4 4 4 4 5 4 4 4 4 3 3 4 4 4 4 5 5 5
14 14 13 12 12 11 11 10 9 8 8 8 8 8 8 8 7 7 7 6 6 6 6 5 5 4 4 4 4 4 4 3 3 3 4 4 4 5 5 5 5 5 5
14 14 13 12 11 10 10 10 9 8 8 8 8 7 7 7 6 6 6 5 5 5 4 4 4 4 3 3 2 2 2 2 2 4 4 4 5 6 6 5 6 6 6
14 13 13 12 11 10 10 9 9 9 9 8 8 7 8 7 6 6 5 4 3 3 3 3 3 3 3 2 1 1 1 1 2 3 3 4 5 6 8 7 7 6 7
13 12 12 12 12 11 10 10 9 9 9 8 7 7 8 7 6 6 5 4 3 2 2 2 3 3 2 1 1 1 0 1 2 3 4 5 6 6 8 8 8 8 8
13 12 12 12 12 12 11 11 10 9 9 9 8 7 7 7 6 4 4 2 1 1 1 1 1 1 1 1 1 1 1 1 2 3 5 6 7 7 7 7 8 8 8
13 12 12 11 11 12 12 11 10 10 10 9 9 8 7 6 5 5 4 2 2 2 2 2 2 2 2 2 2 2 2 2 3 4 5 5 6 7 8 8 9 9 9
13 12 11 11 10 11 11 10 10 10 10 9 8 7 7 6 5 4 3 3 2 2 2 1 1 2 2 2 2 3 4 4 5 6 6 7 7 7 8 8 9 10 10
12 12 11 10 10 10 10 9 9 9 9 8 7 6 6 6 5 5 4 3 3 3 2 2 2 3 3 3 3 3 4 5 6 6 7 7 7 8 9 9 10 10 10
12 11 11 11 11 10 9 9 9 8 8 8 8 6 6 5 5 5 5 4 4 4 4 3 4 4 5 5 5 5 5 5 6 7 7 8 8 9 9 10 11 11 12
11 11 10 10 11 10 9 9 8 8 7 7 7 7 6 6 5 5 5 5 5 5 5 5 5 5 5 5 6 6 7 7 8 7 7 8 9 10 10 10 11 12 13
9 9 10 10 10 10 9 9 8 7 7 7 7 7 6 7 6 5 5 6 6 6 6 6 6 6 6 7 7 8 8 8 9 8 9 9 10 10 10 11 12 13 13
8 9 9 9 9 10 9 9 8 7 6 6 7 6 6 6 6 6 6 6 6 6 6 6 6 7 7 8 8 8 8 9 9 10 10 11 11 12 12 12 13 14 14
8 8 8 8 8 9 9 9 8 8 7 7 7 7 6 6 6 6 6 5 6 6 6 7 7 7 8 9 9 9 9 10 10 11 11 11 12 13 13 14 15 15 14

GEFSSE_500_meanwind_276.txt.gz
Wind_Speed
5 5 5 5 6 6 6 6 7 7 8 7 8 8 8 8 8 8 8 8 8 8 8 8 9 12 11 11 11 11 11 10 9 9 9 8 8 7 6 5 6 5 5
6 5 5 5 5 6 7 7 8 8 8 8 8 9 9 9 9 8 8 8 9 8 8 9 10 11 11 11 10 10 11 10 8 9 9 8 7 7 6 5 5 5 5
6 5 5 5 6 7 8 8 8 9 8 8 9 9 9 9 9 8 8 9 9 8 8 9 9 10 10 10 10 10 10 9 8 8 8 8 7 6 6 5 5 5 5
7 6 5 6 6 7 8 8 8 8 8 8 9 9 9 9 9 9 9 10 9 9 9 10 10 10 10 9 9 9 9 9 8 8 8 7 6 6 6 5 6 6 5
8 7 7 6 7 7 8 8 8 8 8 8 9 9 9 9 9 9 9 10 10 10 10 10 10 10 9 9 8 8 8 9 8 8 7 7 6 5 5 5 5 6 5
9 7 6 6 6 7 8 9 9 9 8 8 9 9 9 10 10 10 10 9 10 10 10 10 10 10 9 8 8 8 8 8 8 7 7 7 6 5 5 5 5 5 5
8 7 7 6 7 7 9 9 9 9 9 8 10 10 10 10 10 10 10 9 9 10 10 10 10 10 9 8 8 7 7 7 7 7 7 7 6 6 6 5 5 5 5
9 8 8 8 8 8 8 9 10 9 9 9 10 11 10 9 10 9 9 9 9 9 9 10 9 9 8 8 7 7 6 6 7 6 6 7 7 7 6 5 5 5 5
9 10 10 9 9 9 9 10 10 10 9 9 10 10 11 10 10 9 9 8 8 8 9 8 9 8 7 7 6 6 6 6 7 5 6 6 6 7 6 6 5 5 5
10 10 10 10 10 10 10 10 9 9 9 9 8 10 11 10 9 9 9 8 8 8 8 7 8 9 8 7 6 6 5 5 6 5 6 6 6 6 6 6 6 6 5
10 10 10 10 11 11 11 10 10 10 10 9 9 9 10 10 9 8 8 8 8 8 7 8 8 8 7 6 6 6 5 5 6 6 6 6 6 6 6 6 7 6 6
11 10 10 10 11 11 11 10 10 10 10 10 10 9 9 9 9 9 8 8 8 7 7 8 8 7 6 5 5 5 5 6 6 6 7 6 7 7 6 7 7 7 6
12 11 11 11 11 11 11 10 10 9 10 10 10 10 9 9 9 8 7 7 6 7 7 7 6 6 6 6 5 4 6 6 6 6 6 6 7 7 7 6 6 7 7
12 11 11 10 9 10 10 9 9 9 9 10 10 10 9 8 8 7 6 6 5 6 6 6 5 5 5 4 4 4 4 4 4 5 5 6 6 6 6 6 6 7 8
11 11 10 9 9 9 9 8 9 9 9 9 9 8 9 8 7 6 5 5 5 6 6 5 5 5 4 3 3 4 4 4 4 4 4 5 7 7 7 7 7 8 8
11 11 10 10 9 9 8 8 8 8 8 8 8 8 7 7 5 5 5 5 5 5 4 4 4 4 4 3 2 3 3 4 4 4 4 5 7 7 8 8 9 8 9
11 11 10 10 10 9 9 8 8 7 7 7 7 7 7 7 6 5 5 5 4 3 3 3 3 3 3 2 2 3 3 3 4 4 5 5 6 7 8 9 10 9 10
11 11 10 10 9 9 9 8 8 7 6 7 7 7 7 7 6 5 5 3 3 2 2 2 2 1 1 2 2 2 3 3 4 5 5 5 6 6 8 9 10 10 11
10 10 10 10 10 10 10 9 8 7 7 7 6 6 6 6 6 6 5 3 2 1 1 1 2 2 3 3 3 3 3 3 4 5 5 6 7 7 8 9 10 10 10
10 10 10 10 10 10 9 9 8 8 8 8 7 6 6 6 5 6 5 4 3 2 1 0 1 2 3 2 2 2 3 4 4 5 6 7 8 8 8 9 10 11 12
9 9 9 10 10 10 10 9 8 8 7 7 7 6 5 5 5 6 5 4 3 1 0 1 2 2 2 2 2 3 4 4 5 6 6 7 7 8 9 9 11 11 12
8 8 8 8 9 9 9 9 8 7 7 6 6 6 6 5 4 4 4 3 2 1 1 1 2 2 2 2 2 3 4 4 5 6 7 6 7 8 9 9 11 12 13
8 7 7 7 8 8 8 8 8 7 6 6 5 5 5 5 5 5 4 3 3 2 2 2 3 3 3 3 4 4 5 6 6 7 7 7 7 8 9 10 11 12 12
7 7 7 7 7 8 7 7 7 7 6 6 5 5 5 5 4 4 4 4 4 3 3 3 4 4 4 4 4 5 6 7 7 8 8 8 9 10 11 12 12 12 13
6 6 6 6 6 7 6 6 6 6 6 5 5 5 5 4 4 4 4 4 4 4 4 4 4 5 6 6 6 6 7 7 8 9 9 10 10 11 12 13 13 14 14
5 5 6 6 5 6 6 5 5 5 4 4 4 4 4 4 4 4 4 4 4 5 5 6 6 7 7 7 7 7 8 9 10 10 11 12 12 13 13 14 14 13 14

GEFSSE_500_meanwind_282.txt.gz
Wind_Speed
2 1 1 1 2 3 3 4 4 4 5 5 6 7 7 7 6 5 5 5 6 5 5 6 6 7 7 8 8 8 8 8 6 6 5 6 5 5 4 5 4 4 3
2 1 1 2 2 3 4 4 4 5 5 5 5 6 6 6 6 6 5 6 5 5 5 6 6 7 7 8 8 8 7 7 6 6 6 6 6 5 4 4 4 3 2
2 2 2 2 3 3 4 4 5 5 5 6 6 6 6 6 6 5 6 5 5 5 5 5 6 8 9 8 8 7 7 7 7 6 6 6 5 5 4 3 3 2 2
4 4 3 3 3 3 4 4 5 5 6 6 6 6 6 6 6 5 6 6 5 5 5 7 8 9 10 9 8 7 7 7 7 6 6 5 4 4 4 3 3 2 2
5 5 4 4 4 4 5 5 5 6 6 6 6 6 6 5 6 6 7 6 7 6 7 7 8 9 8 7 7 6 6 7 6 6 5 4 4 3 3 2 2 2 2
6 5 5 4 4 4 5 5 5 6 6 6 6 6 6 5 6 6 7 6 7 7 7 7 8 8 7 7 6 6 5 6 6 4 4 4 4 3 3 3 3 2 2
6 6 6 5 4 4 5 5 5 6 6 6 6 6 6 5 5 5 6 5 6 6 7 7 7 7 7 7 6 5 5 5 5 4 4 4 4 4 3 3 3 3 3
7 7 6 6 5 5 5 6 6 6 6 6 6 6 6 6 6 6 5 5 6 6 6 6 6 6 7 6 5 5 5 5 4 4 5 4 4 4 3 3 3 4 4
8 8 8 7 6 6 6 6 6 5 5 6 6 6 6 6 6 6 5 6 6 5 6 6 6 6 6 6 5 4 4 3 3 4 4 5 5 4 4 4 4 4 4
9 8 9 8 8 7 6 6 6 5 6 7 6 7 7 6 6 6 6 5 6 5 6 6 5 5 4 4 4 4 3 3 3 3 4 4 4 4 4 4 5 5 5
10 10 10 9 9 8 7 7 6 6 6 6 6 7 7 6 6 6 5 4 4 4 5 5 4 5 4 4 3 3 3 3 3 3 4 4 4 4 4 4 5 6 6
11 10 10 10 10 9 8 7 6 7 6 7 7 6 6 6 6 6 5 4 3 4 4 4 4 4 4 3 2 3 3 3 2 3 4 5 5 5 4 5 6 6 7
12 11 10 10 9 9 8 7 7 7 6 5 5 5 5 5 5 5 4 3 3 3 4 4 5 5 4 3 3 2 2 2 3 4 4 4 5 5 5 6 6 7 6
12 11 10 10 9 8 7 7 8 7 5 5 4 4 5 5 5 4 4 3 3 3 4 4 5 5 4 3 2 2 1 2 4 4 4 5 5 6 6 6 6 6 7
11 11 10 9 9 8 8 7 6 6 5 5 4 4 4 4 4 3 2 2 2 2 3 3 3 3 2 2 1 1 0 2 3 3 4 5 5 6 6 6 6 7 7
11 10 10 9 8 8 8 7 6 5 5 5 4 4 4 4 3 2 2 1 1 1 2 3 2 1 1 1 1 2 3 3 4 5 5 6 6 6 6 6 7 8 8
12 11 10 9 8 7 8 7 7 6 6 6 6 5 4 4 3 2 2 1 1 1 2 1 2 1 2 3 3 3 3 4 6 6 6 6 6 5 5 6 7 8 8
12 11 11 10 8 8 8 7 7 7 7 7 6 6 5 4 4 3 2 1 0 1 1 1 1 1 3 3 3 4 5 6 6 6 6 5 5 5 5 6 7 7 8
12 12 11 11 9 9 9 9 8 8 7 7 6 5 4 4 4 3 3 2 1 0 1 2 2 2 3 4 5 5 6 7 6 7 7 6 6 7 7 8 8 8 8
12 11 11 10 9 8 8 8 8 7 7 7 7 6 5 4 4 4 3 3 3 2 2 3 3 4 4 4 5 5 6 6 6 7 7 6 6 7 7 8 8 9 9
12 12 11 11 10 9 8 8 8 7 7 6 6 6 5 5 5 4 4 4 4 4 4 4 4 4 5 5 5 5 6 7 7 7 7 7 7 7 7 8 9 10 10
11 11 11 10 10 9 8 8 8 8 7 7 6 6 6 5 5 6 5 5 4 5 5 5 5 5 5 6 6 5 6 6 7 7 7 7 7 7 8 9 9 9 10
10 10 11 10 9 8 8 8 7 8 7 6 6 6 6 6 5 5 5 5 6 6 6 5 6 6 5 6 6 7 7 7 8 8 8 8 8 8 9 9 10 10 11
9 10 10 10 9 8 8 8 7 7 7 6 6 5 6 6 5 5 5 6 6 6 6 6 6 6 7 7 7 7 8 9 9 9 9 10 10 10 10 10 10 11 11
8 9 10 10 9 9 8 8 8 8 7 7 6 6 6 6 6 5 6 6 6 6 6 6 7 7 8 8 8 9 9 9 10 11 11 11 11 11 11 11 11 12 12
7 8 9 9 9 9 9 8 8 8 8 7 7 7 6 5 5 5 6 6 6 6 7 7 8 8 9 9 9 9 10 11 11 11 11 11 11 11 12 12 12 12 13

GEFSSE_500_meanwind_288.txt.gz
Wind_Speed
3 2 2 1 2 3 3 3 4 4 5 4 4 4 5 5 6 6 5 6 7 7 6 7 8 7 7 8 10 10 9 9 9 8 8 8 7 6 5 6 5 6 5
3 3 2 2 3 4 4 4 4 5 4 4 5 4 4 5 5 5 5 5 6 6 6 6 8 7 7 9 9 10 9 9 9 8 8 7 6 6 5 5 5 5 5
4 3 2 3 4 4 4 5 5 5 5 5 6 5 5 5 5 5 5 5 5 6 6 6 7 7 8 9 10 9 9 9 8 7 7 6 6 5 5 5 5 4 4
5 3 3 4 4 4 5 6 6 5 5 6 6 6 5 5 4 5 5 5 6 6 6 6 6 7 8 9 9 8 8 8 7 6 5 5 5 5 5 5 5 5 4
6 5 4 4 5 5 6 6 6 6 6 6 5 5 5 5 5 5 5 5 5 6 6 6 7 8 9 9 8 7 7 7 6 5 4 5 5 5 5 5 5 4 4
8 7 6 6 5 6 7 6 6 6 6 5 5 5 4 5 5 5 5 5 5 5 6 6 7 8 9 8 7 7 6 6 6 5 5 5 5 4 4 5 4 4 3
9 8 7 7 6 6 7 7 6 6 6 6 6 5 5 5 5 5 6 5 5 5 6 7 8 8 8 7 6 6 5 5 5 5 5 5 5 5 5 5 4 4 3
9 8 8 7 6 6 6 6 7 6 6 6 6 6 6 5 5 5 6 6 5 5 7 7 7 8 8 7 7 6 5 5 4 5 5 5 5 5 5 5 4 4 3
9 9 8 8 7 7 6 6 6 7 6 6 6 6 6 6 5 5 6 5 5 5 6 6 6 6 6 6 6 5 5 5 5 5 4 4 5 5 5 5 5 4 4
10 10 9 9 9 9 8 7 6 7 7 6 6 6 7 6 6 5 5 6 5 5 6 5 6 6 6 5 5 4 4 3 4 5 5 5 5 5 5 5 5 5 5
11 10 10 10 9 9 8 7 6 6 7 6 7 7 6 6 5 5 5 5 5 5 5 5 5 5 4 4 4 4 3 3 4 4 4 5 5 5 5 6 6 6 6
12 12 12 11 10 9 9 8 7 6 6 6 7 7 6 5 5 5 5 5 5 5 4 4 4 5 4 4 4 4 3 3 3 4 4 5 5 5 6 7 7 7 7
12 12 12 12 10 10 9 9 7 7 6 6 6 5 6 5 5 4 4 4 4 4 4 4 4 4 4 4 4 3 3 3 3 4 4 5 5 6 7 7 8 8 8
13 12 11 12 11 10 10 9 8 7 6 5 6 5 5 5 5 4 4 4 4 4 3 3 3 3 3 3 3 3 3 3 4 4 4 5 6 7 7 8 8 8 8
14 13 11 11 11 10 9 9 8 7 7 6 5 5 5 4 4 4 4 4 4 4 3 3 3 3 2 2 2 2 3 3 4 5 5 5 6 7 8 9 9 8 8
13 13 12 11 11 10 10 10 9 8 7 6 5 5 5 5 4 4 4 3 3 4 4 3 3 3 2 1 1 1 1 1 3 4 6 6 6 6 7 8 9 9 9
14 13 12 12 11 11 11 10 9 8 7 6 6 6 5 5 4 4 3 3 3 3 3 2 2 2 1 1 1 1 1 2 3 4 6 6 7 8 8 9 9 9 9
15 14 13 13 12 11 11 10 9 9 8 7 6 5 5 5 4 3 3 2 2 2 3 2 2 1 1 1 1 1 2 3 4 5 6 6 6 7 8 9 10 10 9
15 14 13 13 12 11 11 10 9 9 9 7 7 6 6 5 4 4 3 3 2 2 1 1 1 0 1 2 2 2 3 3 4 5 6 6 6 6 6 8 9 9 9
14 14 14 13 12 11 10 11 10 9 9 9 8 7 7 6 5 4 3 3 2 1 1 1 1 1 1 2 2 3 3 4 4 5 5 5 5 6 6 7 8 8 9
13 13 14 14 13 11 10 10 10 10 9 9 9 8 7 6 5 4 4 3 3 3 2 1 2 1 2 3 3 3 3 4 5 5 5 6 6 6 6 7 8 8 9
12 13 13 13 13 12 10 10 10 9 9 8 8 8 8 7 6 5 5 5 5 4 4 2 2 2 3 2 2 3 3 3 4 6 7 7 6 6 7 7 8 8 9
11 12 12 12 12 12 11 10 10 9 8 8 8 7 7 7 8 7 6 5 5 4 4 3 3 3 2 3 3 3 3 4 6 7 7 7 7 7 7 6 7 7 8
9 10 11 11 11 11 11 10 9 9 8 8 7 7 7 7 6 6 6 6 5 5 5 4 4 4 3 4 4 5 5 5 7 7 7 7 8 8 8 8 8 9 10
9 9 10 10 11 11 11 10 9 8 7 7 6 6 6 5 5 5 4 4 4 5 5 4 4 5 5 5 6 6 6 6 7 8 8 8 8 8 8 9 9 10 10
7 8 8 9 10 10 10 9 9 8 7 6 6 5 5 5 5 4 5 5 6 6 6 5 5 5 5 6 7 7 7 7 8 8 8 9 9 9 8 9 10 10 11